Regional Weather Roundup
Issued by NWS

Home | Current Version | Previous Version | Text Only | Print | Product List | Glossary On
Versions: 1 2 3 4 5 6 7 8 9 10 11 12 13 14 15 16 17 18 19 20 21 22 23 24 25 26 27
000
ASUS44 KJAN 250810
RWRMS

MISSISSIPPI HOURLY WEATHER ROUNDUP
NATIONAL WEATHER SERVICE JACKSON MS
300 AM CDT THU MAY 25 2017

NOTE: "FAIR: INDICATES FEW OR NO CLOUDS BELOW 12,000 FEET WITH NO
SIGNIFICANT WEATHER AND/OR OBSTRUCTIONS TO VISIBILITY.

MSZ001>002-007>008-010>013-018>021-025>028-034>036-250900-
NORTHWEST MISSISSIPPI

CITY           SKY/WX    TMP DP  RH WIND       PRES   REMARKS
BATESVILLE     FAIR      52  51  95 SW3       29.72S
CLARKSDALE       N/A     55  55 100 MISG      29.72S
CLEVELAND      FAIR      53  53 100 W3        29.73S
GREENWOOD      CLEAR     54  53  97 S7        29.74R
GREENVILLE     CLEAR     55  50  83 W7        29.74R
OXFORD         FAIR      50  48  93 CALM      29.72S
TUNICA         SUNNY     54  50  87 CALM      29.71F
WINONA         FAIR      51  51 100 CALM      29.73S
$$

MSZ003>006-009-014>017-022>024-029>033-037>039-250900-
NORTHEAST MISSISSIPPI

CITY           SKY/WX    TMP DP  RH WIND       PRES   REMARKS
COLUMBUS AFB   CLEAR     53  53  99 CALM      29.70R
CORINTH        FAIR      54  50  87 CALM      29.67S
GOLDN TRIANGLE CLEAR     54  46  76 W6        29.67S
STARKVILLE     FAIR      50  50 100 CALM      29.73R
TUPELO         CLEAR     53  50  89 SW5       29.69S
$$

MSZ040-058-250900-
CENTRAL MISSISSIPPI

CITY           SKY/WX    TMP DP  RH WIND       PRES   REMARKS
JACKSON INTL   CLEAR     52  51  97 S5        29.76S
JACKSON HAWKNS CLEAR     54  51  90 CALM      29.76S
MADISON        FAIR      52  50  93 CALM      29.75S
MERIDIAN KEY   PTCLDY    55  52  89 S3        29.74S
MERIDIAN NAS   CLEAR     56  50  80 W5        29.73S
VICKSBURG VKS  SUNNY     55  52  88 CALM      29.74S
$$

MSZ059>079-250900-
SOUTH MISSISSIPPI

CITY           SKY/WX    TMP DP  RH WIND       PRES   REMARKS
COLUMBIA       FAIR      50  50 100 CALM      29.81R
HATTIESBURG    CLEAR     57  51  80 VRB5      29.79R
LAUREL         FAIR      53  53 100 SW3       29.78S
MCCOMB         CLEAR     52  49  89 CALM      29.78S
NATCHEZ        CLEAR     53  51  93 CALM      29.79
PINE BELT      NOT AVBL
$$

MSZ080>082-250900-
COASTAL MISSISSIPPI

CITY           SKY/WX    TMP DP  RH WIND       PRES   REMARKS
BILOXI         CLEAR     62  53  74 NW3       29.78R
PASCAGOULA     CLEAR     57  53  86 CALM      29.78R
GULFPORT       CLEAR     58  55  90 CALM      29.78R
$$

LAZ007>009-015>016-023>026-250900-
NORTHEAST LOUISIANA

CITY           SKY/WX    TMP DP  RH WIND       PRES   REMARKS
BASTROP        FAIR      51  51  98 CALM      29.77S
TALLULAH/VBURG CLEAR     53  51  93 CALM      29.77R
VIDALIA        FAIR      54  54  99 CALM      29.78S
$$




USA.gov is the U.S. government's official web portal to all federal, state and local government web resources and services.